User: anonymous   Login
Location: Unspecified
(0.0000°N, 0.0000°E)
Time: 02:44:10
(UTC+00:00)
Language:

Alouette 1 - Orbit

View from above orbital plane
View from above orbital plane
View from above satellite
View from above satellite

Ground track
Ground track

The orbit data is extracted from the following two-line orbital elements,

1   424U 62049A   18267.73982654 +.00000046 +00000-0 +43095-4 0  9994
2   424 080.4689 167.8413 0022870 319.3755 068.4024 13.69112518794639
Epoch (UTC): 24 September 2018 17:45:21
Eccentricity: 0.0022870
inclination: 80.4689°
perigee height: 986 km
apogee height: 1019 km
right ascension of ascending node: 167.8413°
argument of perigee: 319.3755°
revolutions per day: 13.69112518
mean anomaly at epoch: 68.4024°
orbit number at epoch: 79463

The dashed part of the orbit path shows where the satellite is in the earth's shadow,  

DLR